Regional Weather Roundup
Issued by NWS

Home | Current Version | Previous Version | Text Only | Print | Product List | Glossary On
Versions: 1 2 3 4 5 6 7 8 9 10 11 12 13 14 15 16 17 18 19 20 21 22 23 24 25 26 27 28 29 30 31 32 33 34 35 36 37 38 39 40 41 42 43 44 45 46 47 48 49 50
000
ASUS43 KDMX 301907
RWRIA

WEATHER ROUNDUP FOR IOWA
NATIONAL WEATHER SERVICE DES MOINES IA
200 PM CDT THU JUL 30 2015

NOTE: "FAIR" INDICATES FEW OR NO CLOUDS BELOW 12,000 FEET WITH NO
SIGNIFICANT WEATHER AND/OR OBSTRUCTIONS TO VISIBILITY.

* - THESE STATIONS ARE NOT NWS STATIONS...THUS NOT UNDER NWS
QUALITY CONTROL.  THEY ALSO DO NOT REPORT WEATHER SUCH
AS PRECIPITATION OR FOG.

IAZ001>003-012>014-020>022-031>034-043>046-302000-
   NORTHWEST IOWA

CITY           SKY/WX    TMP DP  RH WIND       PRES   REMARKS
CARROLL *      SUNNY     82  66  57 W14G21    30.17F HX  85
CHEROKEE *     SUNNY     82  66  57 W9G16     30.16S HX  85
DENISON *      SUNNY     82  64  54 W12G20    30.17F HX  84
LE MARS *      SUNNY     84  66  54 VRB7G14   30.16F HX  86
ORANGE CITY *  SUNNY     82  63  51 W8        30.16F HX  83
SHELDON *      SUNNY     82  64  54 VRB5G12   30.14F HX  84
SIOUX CITY     SUNNY     85  66  53 W13       30.16F HX  87
SPENCER        SUNNY     85  62  46 W9        30.15F HX  85
STORM LAKE *   SUNNY     81  66  61 W12       30.18S HX  83
$$

IAZ055>058-069>071-079>083-090>094-302000-
   SOUTHWEST IOWA

CITY           SKY/WX    TMP DP  RH WIND       PRES   REMARKS
ATLANTIC *     SUNNY     84  63  48 W7G14     30.19F HX  85
AUDUBON *      SUNNY     84  64  51 W8        30.20F HX  86
CLARINDA *     SUNNY     84  66  54 W6G13     30.21F HX  86
COUNCIL BLFS * SUNNY     86  59  39 SW10      30.20F HX  85
CRESTON *      SUNNY     82  61  47 W14       30.22S HX  83
HARLAN  *      SUNNY     82  63  51 W13       30.23S HX  83
LAMONI           N/A     85  61  44 W10       30.20F HX  85
RED OAK *      SUNNY     86  63  45 W7        30.20S HX  87
SHENANDOAH *   SUNNY     84  66  54 W8        30.20S HX  86
$$

IAZ047>049-059>061-072>074-084-302000-
   CENTRAL IOWA

CITY           SKY/WX    TMP DP  RH WIND       PRES   REMARKS
AMES           SUNNY     84  66  54 W13       30.14F HX  86
ANKENY *       SUNNY     84  64  51 W13       30.15F HX  86
CHARITON *     SUNNY     84  59  42 W14G21    30.18F HX  84
DES MOINES     MOSUNNY   88  58  36 W18       30.15F HX  87
GRINNELL*      MOSUNNY   84  64  51 W16       30.15F HX  86
KNOXVILLE *    SUNNY     84  61  45 W13       30.15F HX  84
MARSHALLTOWN   SUNNY     84  68  58 W9        30.12F HX  87
PELLA *        SUNNY     84  70  61 W9        30.16F HX  88
PERRY *          N/A     84  66  54 W14       30.17F HX  86
$$

IAZ004>006-015-016-023>025-035-036-302000-
   NORTH CENTRAL IOWA

CITY           SKY/WX    TMP DP  RH WIND       PRES   REMARKS
ALGONA *       SUNNY     84  66  54 W8        30.14F HX  86
CLARION *      SUNNY     82  66  57 W10       30.14F HX  85
ESTHERVILLE    SUNNY     83  59  44 NW5       30.14F HX  83
FORT DODGE *   SUNNY     84  66  54 W12G18    30.15F HX  86
MASON CITY     SUNNY     85  63  47 NW13      30.14F HX  86
FOREST CITY *  SUNNY     81  61  50 NW9       30.13F HX  81
IOWA FALLS *     N/A     84  64  51 W13       30.15S HX  86
$$

IAZ007>011-017>019-026>030-037>042-050>054-066-302000-
   NORTHEAST IOWA

CITY           SKY/WX    TMP DP  RH WIND       PRES   REMARKS
CEDAR RAPIDS   SUNNY     84  69  60 W12       30.11F HX  88
CHARLES CITY * SUNNY     82  63  51 NW15      30.12F HX  83
CLINTON *      SUNNY     84  64  51 NW9       30.12F HX  86
DECORAH *      SUNNY     82  59  44 W12       30.09S HX  82
DUBUQUE        SUNNY     84  61  45 W15       30.10F HX  84
MONTICELLO *   SUNNY     84  63  48 W12       30.09F HX  85
OELWEIN *      SUNNY     84  64  51 W12       30.12S HX  86
WATERLOO       SUNNY     85  63  47 NW8G18    30.10F HX  86
$$

IAZ064-065-067-068-078-302000-
   EAST CENTRAL IOWA

CITY           SKY/WX    TMP DP  RH WIND       PRES   REMARKS
DAVENPORT      SUNNY     84  65  52 W12       30.11F HX  86
IOWA CITY      SUNNY     85  65  51 SW9       30.12F HX  86
MT. PLEASANT * SUNNY     88  52  29 W12G18    30.14F HX  85
MUSCATINE *    SUNNY     88  63  42 W9        30.11F HX  88
QUAD CITIES    SUNNY     88  59  37 W13G20    30.10F HX  87
$$

IAZ062-063-075>077-085>089-095>099-302000-
   SOUTHEAST IOWA

CITY           SKY/WX    TMP DP  RH WIND       PRES   REMARKS
BURLINGTON     SUNNY     86  64  47 MISG      30.14F HX  87
FAIRFIELD *    SUNNY     84  61  45 W14G21    30.15F HX  84
FORT MADISON * SUNNY     84  64  51 W10       30.15F HX  86
KEOKUK *       SUNNY     88  63  42 W13       30.14F HX  88
OSKALOOSA *      N/A     84  66  54 W10       30.15F HX  86
CENTERVILLE *  SUNNY     84  64  51 W13       30.19F HX  86
OTTUMWA        SUNNY     84  65  52 W15       30.13F HX  86
WASHINGTON *   SUNNY     84  64  51 W14G21    30.14F HX  86
$$

ABBREVIATIONS USED IN REMARKS
   TC - TEMPERATURES IN CELSIUS
  WCI - WIND CHILL INDEX
   HX - HEAT INDEX
  VSB - VISIBILITY
$$




USA.gov is the U.S. government's official web portal to all federal, state and local government web resources and services.